Date String (YYYY-MM-DD hh:mm:ss) UTC,Instrument flags,absolute air pressure of the measurement (hPa),sample flow rate (lpm),inlet stack bypass flow (lpm),air temperature of the measurement (°C),ambient temperature measured by the external sensor (°C),aerosol sample conditioner tube jacket temperature (°C),OPC LED temperature (°C),internal box temperature (°C),relative humidity of the measurement (%),span deviation,mass concentration of particles derived from Lorenz-Mie calculation of OPC scattering (μg/m³),mass concentration of particles derived from Lorenz-Mie calculation of OPC scattering (μg/m³),mass concentration of particles derived from Lorenz-Mie calculation of OPC scattering (μg/m³)
DateTimeUTC,F1_M11,P_M11,Q1_M11,Q2_M11,T1_M11,T2_M11,T3_M11,T4_M11,T5_M11,U1_M11,ZSPAN_M11,X2_M11,X0_M11,X1_M11
2023-09-19 22:00:00,SystemResetWarning,0828.5,5.00,000.00,027.9,026.5,000.0,036.2,029.7,22.5,0000.0,0001.87,0002.72,0001.59
2023-09-19 22:01:00,SystemResetWarning,0828.5,5.00,000.00,028.0,026.7,000.0,036.2,029.7,22.2,0000.0,0001.84,0002.68,0001.57
2023-09-19 22:02:00,SystemResetWarning,0828.5,5.00,000.00,028.0,026.8,000.0,036.3,029.8,22.1,0000.0,0001.84,0002.74,0001.56
2023-09-19 22:03:00,SystemResetWarning,0828.5,5.00,000.00,028.0,026.9,000.0,036.3,029.8,21.3,0000.0,0001.88,0003.30,0001.56
2023-09-19 22:04:00,SystemResetWarning,0828.5,4.99,000.00,028.1,026.8,000.0,036.3,029.8,22.0,0000.0,0001.91,0003.40,0001.58
2023-09-19 22:05:00,SystemResetWarning,0828.4,4.99,000.00,028.0,025.3,000.0,036.3,029.3,22.1,0000.0,0001.94,0003.58,0001.59
2023-09-19 22:06:00,SystemResetWarning,0828.4,5.00,000.00,027.9,023.9,000.0,036.2,029.0,22.2,0000.0,0001.94,0003.45,0001.60
2023-09-19 22:07:00,SystemResetWarning,0828.4,5.00,000.00,027.8,023.9,000.0,036.2,029.0,22.5,0000.0,0001.90,0003.34,0001.59
2023-09-19 22:08:00,SystemResetWarning,0828.4,5.02,000.00,027.7,024.2,000.0,036.2,029.0,22.8,0000.0,0001.91,0003.32,0001.59
2023-09-19 22:09:00,SystemResetWarning,0828.4,5.00,000.00,027.6,024.6,000.0,036.1,029.0,23.3,0000.0,0001.93,0003.34,0001.62
2023-09-19 22:10:00,SystemResetWarning,0828.4,5.00,000.00,027.6,025.0,000.0,036.1,029.1,23.3,0000.0,0001.94,0003.36,0001.64
2023-09-19 22:11:00,SystemResetWarning,0828.4,4.99,000.00,027.6,025.3,000.0,036.1,029.2,23.0,0000.0,0002.00,0003.47,0001.66
2023-09-19 22:12:00,SystemResetWarning,0828.4,5.00,000.00,027.7,025.6,000.0,036.1,029.3,22.6,0000.0,0002.05,0003.59,0001.66
2023-09-19 22:13:00,SystemResetWarning,0828.4,5.00,000.00,027.7,025.9,000.0,036.1,029.3,22.7,0000.0,0002.12,0003.73,0001.66
2023-09-19 22:14:00,SystemResetWarning,0828.4,5.00,000.00,027.7,026.1,000.0,036.1,029.4,22.7,0000.0,0002.09,0003.34,0001.65
2023-09-19 22:15:00,SystemResetWarning,0828.4,4.99,000.00,027.8,026.3,000.0,036.1,029.5,23.3,0000.0,0002.07,0003.19,0001.62
2023-09-19 22:16:00,SystemResetWarning,0828.4,5.01,000.00,027.8,026.5,000.0,036.1,029.5,23.5,0000.0,0002.07,0002.99,0001.60
2023-09-19 22:17:00,SystemResetWarning,0828.4,5.02,000.00,027.8,026.6,000.0,036.1,029.6,23.6,0000.0,0002.09,0003.02,0001.59
2023-09-19 22:18:00,SystemResetWarning,0828.4,5.00,000.00,027.9,026.7,000.0,036.2,029.6,23.3,0000.0,0002.08,0003.50,0001.57
2023-09-19 22:19:00,SystemResetWarning,0828.4,4.99,000.00,027.9,026.8,000.0,036.2,029.7,22.7,0000.0,0002.09,0003.92,0001.55
2023-09-19 22:20:00,SystemResetWarning,0828.4,4.99,000.00,028.0,026.9,000.0,036.2,029.8,22.4,0000.0,0002.08,0003.97,0001.54
2023-09-19 22:21:00,SystemResetWarning,0828.4,5.00,000.00,028.0,027.0,000.0,036.2,029.8,22.2,0000.0,0002.09,0003.99,0001.54
2023-09-19 22:22:00,SystemResetWarning,0828.4,5.00,000.00,028.0,026.4,000.0,036.2,029.7,22.0,0000.0,0002.08,0003.96,0001.54
2023-09-19 22:23:00,SystemResetWarning,0828.4,4.99,000.00,027.9,025.0,000.0,036.2,029.3,22.4,0000.0,0002.10,0003.98,0001.55
2023-09-19 22:24:00,SystemResetWarning,0828.4,5.01,000.00,027.9,024.7,000.0,036.2,029.3,22.0,0000.0,0002.06,0003.99,0001.57
2023-09-19 22:25:00,SystemResetWarning,0828.4,5.01,000.00,027.8,024.9,000.0,036.2,029.2,22.1,0000.0,0002.06,0004.02,0001.60
2023-09-19 22:26:00,SystemResetWarning,0828.4,4.99,000.00,027.8,025.2,000.0,036.2,029.3,22.9,0000.0,0002.09,0004.05,0001.62
2023-09-19 22:27:00,SystemResetWarning,0828.4,5.00,000.00,027.8,025.5,000.0,036.2,029.3,23.6,0000.0,0002.08,0004.05,0001.64
2023-09-19 22:28:00,SystemResetWarning,0828.4,5.00,000.00,027.8,025.8,000.0,036.2,029.4,23.2,0000.0,0002.07,0004.37,0001.65
2023-09-19 22:29:00,SystemResetWarning,0828.4,5.00,000.00,027.8,026.0,000.0,036.2,029.5,22.3,0000.0,0002.10,0004.24,0001.67
2023-09-19 22:30:00,SystemResetWarning,0828.4,5.00,000.00,027.8,026.2,000.0,036.2,029.5,22.6,0000.0,0002.12,0003.54,0001.68
2023-09-19 22:31:00,SystemResetWarning,0828.4,5.00,000.00,027.9,026.4,000.0,036.2,029.6,22.7,0000.0,0002.14,0003.55,0001.71
2023-09-19 22:32:00,SystemResetWarning,0828.4,5.00,000.00,027.9,026.6,000.0,036.2,029.6,22.5,0000.0,0002.17,0003.62,0001.71
2023-09-19 22:33:00,SystemResetWarning,0828.4,5.00,000.00,027.9,026.7,000.0,036.2,029.7,22.3,0000.0,0002.21,0003.74,0001.71
2023-09-19 22:34:00,SystemResetWarning,0828.4,5.01,000.00,028.0,026.8,000.0,036.2,029.7,22.6,0000.0,0002.21,0003.76,0001.71
2023-09-19 22:35:00,SystemResetWarning,0828.4,5.01,000.00,028.0,026.9,000.0,036.3,029.8,23.2,0000.0,0002.18,0003.66,0001.70
2023-09-19 22:36:00,SystemResetWarning,0828.4,5.00,000.00,028.0,027.0,000.0,036.3,029.8,23.4,0000.0,0002.16,0003.44,0001.68
2023-09-19 22:37:00,SystemResetWarning,0828.4,4.98,000.00,028.1,026.3,000.0,036.3,029.6,23.3,0000.0,0002.13,0003.41,0001.67
2023-09-19 22:38:00,SystemResetWarning,0828.4,5.00,000.00,027.9,024.6,000.0,036.2,028.9,23.4,0000.0,0002.11,0003.40,0001.65
2023-09-19 22:39:00,SystemResetWarning,0828.4,5.00,000.00,027.8,023.8,000.0,036.2,028.8,23.5,0000.0,0002.14,0003.15,0001.64
2023-09-19 22:40:00,SystemResetWarning,0828.4,5.01,000.00,027.7,023.9,000.0,036.1,028.8,23.7,0000.0,0002.13,0003.15,0001.64
2023-09-19 22:41:00,SystemResetWarning,0828.4,5.00,000.00,027.6,024.3,000.0,036.1,028.9,23.6,0000.0,0002.13,0003.24,0001.63
2023-09-19 22:42:00,SystemResetWarning,0828.4,5.00,000.00,027.6,024.7,000.0,036.1,029.0,23.4,0000.0,0002.11,0003.32,0001.61
2023-09-19 22:43:00,SystemResetWarning,0828.4,5.00,000.00,027.6,025.0,000.0,036.1,029.1,23.5,0000.0,0002.08,0003.22,0001.60
2023-09-19 22:44:00,SystemResetWarning,0828.4,4.99,000.00,027.6,025.4,000.0,036.1,029.2,23.5,0000.0,0002.05,0003.13,0001.60
2023-09-19 22:45:00,SystemResetWarning,0828.4,5.00,000.00,027.6,025.6,000.0,036.1,029.3,23.9,0000.0,0002.02,0003.05,0001.59
2023-09-19 22:46:00,SystemResetWarning,0828.4,5.00,000.00,027.6,025.9,000.0,036.1,029.3,23.6,0000.0,0002.02,0003.01,0001.59
2023-09-19 22:47:00,SystemResetWarning,0828.4,5.00,000.00,027.7,026.1,000.0,036.1,029.4,23.2,0000.0,0002.05,0003.06,0001.60
2023-09-19 22:48:00,SystemResetWarning,0828.4,5.00,000.00,027.7,026.3,000.0,036.1,029.4,23.2,0000.0,0002.07,0003.11,0001.60
2023-09-19 22:49:00,SystemResetWarning,0828.4,5.01,000.00,027.8,026.4,000.0,036.1,029.5,23.1,0000.0,0002.06,0003.37,0001.61
2023-09-19 22:50:00,SystemResetWarning,0828.4,5.00,000.00,027.8,026.6,000.0,036.1,029.5,23.3,0000.0,0002.05,0003.38,0001.61
2023-09-19 22:51:00,SystemResetWarning,0828.4,5.00,000.00,027.8,026.7,000.0,036.1,029.6,22.8,0000.0,0002.04,0003.34,0001.61
2023-09-19 22:52:00,SystemResetWarning,0828.4,5.00,000.00,027.9,026.8,000.0,036.1,029.6,22.8,0000.0,0002.03,0003.28,0001.62
2023-09-19 22:53:00,SystemResetWarning,0828.4,5.00,000.00,027.9,026.9,000.0,036.2,029.7,22.8,0000.0,0002.02,0003.13,0001.62
2023-09-19 22:54:00,SystemResetWarning,0828.3,5.00,000.00,028.0,027.0,000.0,036.2,029.7,22.9,0000.0,0002.05,0003.28,0001.63
2023-09-19 22:55:00,SystemResetWarning,0828.4,5.01,000.00,028.0,026.9,000.0,036.2,029.8,22.6,0000.0,0002.08,0003.56,0001.64
2023-09-19 22:56:00,SystemResetWarning,0828.4,4.98,000.00,028.0,025.7,000.0,036.2,029.4,22.7,0000.0,0002.11,0003.64,0001.65
2023-09-19 22:57:00,SystemResetWarning,0828.3,5.01,000.00,027.9,024.7,000.0,036.2,029.2,22.7,0000.0,0002.17,0003.84,0001.66
2023-09-19 22:58:00,SystemResetWarning,0828.4,5.01,000.00,027.8,024.7,000.0,036.1,029.1,22.7,0000.0,0002.15,0003.85,0001.66
2023-09-19 22:59:00,SystemResetWarning,0828.4,5.01,000.00,027.7,024.9,000.0,036.1,029.1,22.3,0000.0,0002.20,0004.00,0001.67
